Time,TemperatureF,DewpointF,PressureIn,WindDirection,WindDirectionDegrees,WindSpeedMPH,WindSpeedGustMPH,Humidity,HourlyPrecipIn,Conditions,Clouds,dailyrainin,SoftwareType,DateUTC
2013-11-05 00:00:00,40.1,28.9,29.95,ENE,72,0.0,14.0,64,0.00,,,0.01,Wunderground v.1.13,2013-11-05 07:00:00,
2013-11-05 00:05:00,40.1,28.9,29.94,ENE,73,0.0,14.0,64,0.00,,,0.00,Wunderground v.1.13,2013-11-05 07:05:00,
2013-11-05 00:10:00,40.1,28.9,29.94,East,80,1.0,1.0,64,0.00,,,0.00,Wunderground v.1.13,2013-11-05 07:10:00,
2013-11-05 00:14:00,40.1,28.9,29.94,ENE,74,1.0,1.0,64,0.00,,,0.00,Wunderground v.1.13,2013-11-05 07:14:00,
2013-11-05 00:19:00,40.2,29.0,29.94,ENE,74,1.0,1.0,64,0.00,,,0.00,Wunderground v.1.13,2013-11-05 07:19:00,
2013-11-05 00:25:00,40.2,29.0,29.94,ENE,76,0.0,14.0,64,0.00,,,0.00,Wunderground v.1.13,2013-11-05 07:25:00,
2013-11-05 00:35:00,40.2,29.0,29.93,ENE,70,1.0,1.0,64,0.00,,,0.00,Wunderground v.1.13,2013-11-05 07:35:00,
2013-11-05 00:40:00,40.2,29.0,29.93,East,90,0.0,14.0,64,0.00,,,0.00,Wunderground v.1.13,2013-11-05 07:40:00,
2013-11-05 00:45:00,40.2,29.0,29.93,ENE,76,0.0,14.0,64,0.00,,,0.00,Wunderground v.1.13,2013-11-05 07:45:00,
2013-11-05 00:50:00,40.2,29.0,29.94,ENE,78,0.0,14.0,64,0.00,,,0.00,Wunderground v.1.13,2013-11-05 07:50:00,
2013-11-05 00:55:00,40.1,28.9,29.94,ENE,66,0.0,14.0,64,0.00,,,0.00,Wunderground v.1.13,2013-11-05 07:55:00,
2013-11-05 01:00:00,40.1,28.9,29.94,ESE,117,0.0,14.0,64,0.00,,,0.00,Wunderground v.1.13,2013-11-05 08:00:00,
2013-11-05 01:05:00,40.1,28.9,29.93,SE,126,0.0,14.0,64,0.00,,,0.00,Wunderground v.1.13,2013-11-05 08:05:00,
2013-11-05 01:10:00,40.1,28.9,29.93,SE,137,0.0,14.0,64,0.00,,,0.00,Wunderground v.1.13,2013-11-05 08:10:00,
2013-11-05 01:19:00,40.1,28.9,29.92,SE,134,1.0,14.0,64,0.00,,,0.00,Wunderground v.1.13,2013-11-05 08:19:00,
2013-11-05 01:24:00,40.1,28.9,29.92,ESE,121,1.0,1.0,64,0.00,,,0.00,Wunderground v.1.13,2013-11-05 08:24:00,
2013-11-05 01:30:00,39.9,29.1,29.92,SE,124,0.0,14.0,65,0.00,,,0.00,Wunderground v.1.13,2013-11-05 08:30:00,
2013-11-05 01:39:00,39.8,29.0,29.91,SE,127,0.0,14.0,65,0.00,,,0.00,Wunderground v.1.13,2013-11-05 08:39:00,
2013-11-05 01:44:00,39.8,29.4,29.91,East,90,0.0,14.0,66,0.00,,,0.00,Wunderground v.1.13,2013-11-05 08:44:00,
2013-11-05 01:49:00,39.6,29.2,29.91,East,88,0.0,14.0,66,0.00,,,0.00,Wunderground v.1.13,2013-11-05 08:49:00,
2013-11-05 01:54:00,39.6,29.2,29.91,ESE,119,0.0,14.0,66,0.00,,,0.00,Wunderground v.1.13,2013-11-05 08:54:00,
2013-11-05 01:59:00,39.6,29.5,29.91,SE,138,0.0,14.0,67,0.00,,,0.00,Wunderground v.1.13,2013-11-05 08:59:00,
2013-11-05 02:05:00,39.6,29.5,29.90,SE,134,0.0,14.0,67,0.00,,,0.00,Wunderground v.1.13,2013-11-05 09:05:00,
2013-11-05 02:10:00,39.8,29.7,29.90,SSE,149,0.0,14.0,67,0.00,,,0.00,Wunderground v.1.13,2013-11-05 09:10:00,
2013-11-05 02:15:00,39.8,30.1,29.90,ESE,105,0.0,14.0,68,0.00,,,0.00,Wunderground v.1.13,2013-11-05 09:15:00,
2013-11-05 02:20:00,39.6,30.3,29.90,ESE,105,0.0,14.0,69,0.00,,,0.00,Wunderground v.1.13,2013-11-05 09:20:00,
2013-11-05 02:25:00,39.6,30.6,29.90,ESE,103,0.0,14.0,70,0.00,,,0.00,Wunderground v.1.13,2013-11-05 09:25:00,
2013-11-05 02:30:00,39.5,30.9,29.90,East,90,0.0,14.0,71,0.00,,,0.00,Wunderground v.1.13,2013-11-05 09:30:00,
2013-11-05 02:35:00,39.3,30.7,29.89,East,89,0.0,14.0,71,0.00,,,0.00,Wunderground v.1.13,2013-11-05 09:35:00,
2013-11-05 02:40:00,39.3,31.4,29.89,East,89,0.0,14.0,73,0.00,,,0.00,Wunderground v.1.13,2013-11-05 09:40:00,
2013-11-05 02:45:00,39.2,31.3,29.89,East,89,0.0,14.0,73,0.00,,,0.00,Wunderground v.1.13,2013-11-05 09:45:00,
2013-11-05 02:50:00,39.1,31.2,29.90,East,89,0.0,14.0,73,0.00,,,0.00,Wunderground v.1.13,2013-11-05 09:50:00,
2013-11-05 02:55:00,39.1,31.5,29.90,East,89,0.0,14.0,74,0.00,,,0.00,Wunderground v.1.13,2013-11-05 09:55:00,
2013-11-05 03:00:00,38.9,31.6,29.90,East,89,0.0,14.0,75,0.00,,,0.00,Wunderground v.1.13,2013-11-05 10:00:00,
2013-11-05 03:05:00,38.8,31.9,29.91,East,89,0.0,14.0,76,0.00,,,0.01,Wunderground v.1.13,2013-11-05 10:05:00,
2013-11-05 03:10:00,38.5,31.6,29.91,SE,142,1.0,1.0,76,0.00,,,0.01,Wunderground v.1.13,2013-11-05 10:10:00,
2013-11-05 03:14:00,38.2,31.9,29.91,SSE,151,1.0,14.0,78,0.06,,,0.02,Wunderground v.1.13,2013-11-05 10:14:00,
2013-11-05 03:20:00,37.9,32.0,29.91,SSE,157,1.0,14.0,79,0.06,,,0.02,Wunderground v.1.13,2013-11-05 10:20:00,
2013-11-05 03:30:00,37.3,32.0,29.91,SE,130,1.0,1.0,81,0.08,,,0.04,Wunderground v.1.13,2013-11-05 10:30:00,
2013-11-05 03:35:00,36.9,32.2,29.91,SSE,149,1.0,1.0,83,0.08,,,0.04,Wunderground v.1.13,2013-11-05 10:35:00,
2013-11-05 03:40:00,36.5,32.1,29.91,SE,136,1.0,1.0,84,0.07,,,0.05,Wunderground v.1.13,2013-11-05 10:40:00,
2013-11-05 03:45:00,36.0,31.9,29.91,SE,126,0.0,14.0,85,0.07,,,0.05,Wunderground v.1.13,2013-11-05 10:45:00,
2013-11-05 03:50:00,35.8,32.0,29.91,SE,125,0.0,14.0,86,0.07,,,0.06,Wunderground v.1.13,2013-11-05 10:50:00,
2013-11-05 03:55:00,35.5,31.7,29.91,SE,125,0.0,14.0,86,0.07,,,0.06,Wunderground v.1.13,2013-11-05 10:55:00,
2013-11-05 04:00:00,35.5,32.0,29.91,SE,125,0.0,14.0,87,0.04,,,0.06,Wunderground v.1.13,2013-11-05 11:00:00,
2013-11-05 04:05:00,35.5,32.3,29.91,East,98,0.0,14.0,88,0.04,,,0.07,Wunderground v.1.13,2013-11-05 11:05:00,
2013-11-05 04:10:00,35.5,32.3,29.91,East,98,0.0,14.0,88,0.04,,,0.07,Wunderground v.1.13,2013-11-05 11:10:00,
2013-11-05 04:14:00,35.3,32.4,29.91,East,98,0.0,14.0,89,0.06,,,0.08,Wunderground v.1.13,2013-11-05 11:14:00,
2013-11-05 04:19:00,35.2,32.3,29.92,East,98,0.0,14.0,89,0.06,,,0.08,Wunderground v.1.13,2013-11-05 11:19:00,
2013-11-05 04:24:00,34.9,32.0,29.92,East,98,0.0,14.0,89,0.06,,,0.09,Wunderground v.1.13,2013-11-05 11:24:00,
2013-11-05 04:29:00,34.9,32.0,29.92,East,98,0.0,14.0,89,0.06,,,0.09,Wunderground v.1.13,2013-11-05 11:29:00,
2013-11-05 04:34:00,34.7,31.8,29.92,East,98,0.0,14.0,89,0.05,,,0.09,Wunderground v.1.13,2013-11-05 11:34:00,
2013-11-05 04:44:00,34.4,31.8,29.92,ESE,119,0.0,14.0,90,0.04,,,0.10,Wunderground v.1.13,2013-11-05 11:44:00,
2013-11-05 04:49:00,34.3,31.7,29.91,ESE,119,0.0,14.0,90,0.04,,,0.10,Wunderground v.1.13,2013-11-05 11:49:00,
2013-11-05 04:54:00,34.1,31.7,29.91,ESE,119,0.0,14.0,91,0.04,,,0.11,Wunderground v.1.13,2013-11-05 11:54:00,
2013-11-05 04:59:00,34.3,31.9,29.91,ESE,119,0.0,14.0,91,0.04,,,0.11,Wunderground v.1.13,2013-11-05 11:59:00,
2013-11-05 05:05:00,34.3,31.9,29.91,ESE,119,0.0,14.0,91,0.04,,,0.11,Wunderground v.1.13,2013-11-05 12:05:00,
2013-11-05 05:10:00,34.4,32.3,29.91,ESE,119,0.0,14.0,92,0.05,,,0.12,Wunderground v.1.13,2013-11-05 12:10:00,
2013-11-05 05:15:00,34.6,32.5,29.91,ESE,119,0.0,14.0,92,0.05,,,0.12,Wunderground v.1.13,2013-11-05 12:15:00,
2013-11-05 05:20:00,34.7,32.6,29.91,SE,132,0.0,14.0,92,0.05,,,0.13,Wunderground v.1.13,2013-11-05 12:20:00,
2013-11-05 05:25:00,34.7,32.6,29.91,SE,131,0.0,14.0,92,0.05,,,0.13,Wunderground v.1.13,2013-11-05 12:25:00,
2013-11-05 05:30:00,34.9,32.8,29.91,SE,131,0.0,14.0,92,0.06,,,0.14,Wunderground v.1.13,2013-11-05 12:30:00,
2013-11-05 05:35:00,34.9,32.8,29.91,SE,130,0.0,14.0,92,0.06,,,0.14,Wunderground v.1.13,2013-11-05 12:35:00,
2013-11-05 05:40:00,34.9,32.8,29.91,SE,130,0.0,14.0,92,0.05,,,0.15,Wunderground v.1.13,2013-11-05 12:40:00,
2013-11-05 05:45:00,34.9,32.8,29.91,ESE,117,0.0,14.0,92,0.05,,,0.15,Wunderground v.1.13,2013-11-05 12:45:00,
2013-11-05 05:50:00,34.7,32.9,29.90,SE,124,0.0,14.0,93,0.05,,,0.15,Wunderground v.1.13,2013-11-05 12:50:00,
2013-11-05 05:55:00,34.6,32.8,29.90,SE,141,0.0,14.0,93,0.04,,,0.16,Wunderground v.1.13,2013-11-05 12:55:00,
2013-11-05 06:00:00,34.4,32.6,29.90,SE,137,0.0,14.0,93,0.04,,,0.16,Wunderground v.1.13,2013-11-05 13:00:00,
2013-11-05 06:05:00,34.3,32.5,29.89,SE,137,0.0,14.0,93,0.04,,,0.16,Wunderground v.1.13,2013-11-05 13:05:00,
2013-11-05 06:10:00,34.0,32.2,29.89,SE,137,0.0,14.0,93,0.04,,,0.16,Wunderground v.1.13,2013-11-05 13:10:00,
2013-11-05 06:14:00,33.8,32.0,29.89,SE,137,0.0,14.0,93,0.00,,,0.16,Wunderground v.1.13,2013-11-05 13:14:00,
2013-11-05 06:20:00,33.7,31.9,29.90,SE,137,0.0,14.0,93,0.00,,,0.16,Wunderground v.1.13,2013-11-05 13:20:00,
2013-11-05 06:25:00,33.7,31.9,29.90,SE,137,0.0,14.0,93,0.00,,,0.16,Wunderground v.1.13,2013-11-05 13:25:00,
2013-11-05 06:30:00,33.5,31.7,29.90,SE,137,0.0,14.0,93,0.00,,,0.16,Wunderground v.1.13,2013-11-05 13:30:00,
2013-11-05 06:34:00,33.4,31.6,29.90,SE,137,0.0,14.0,93,0.00,,,0.16,Wunderground v.1.13,2013-11-05 13:34:00,
2013-11-05 06:39:00,33.4,31.6,29.90,SE,137,0.0,14.0,93,0.00,,,0.16,Wunderground v.1.13,2013-11-05 13:39:00,
2013-11-05 06:44:00,33.2,31.4,29.90,SE,137,0.0,14.0,93,0.00,,,0.16,Wunderground v.1.13,2013-11-05 13:44:00,
2013-11-05 06:49:00,33.1,31.3,29.90,ESE,118,0.0,14.0,93,0.00,,,0.16,Wunderground v.1.13,2013-11-05 13:49:00,
2013-11-05 06:54:00,33.1,31.6,29.90,ESE,118,0.0,14.0,94,0.00,,,0.16,Wunderground v.1.13,2013-11-05 13:54:00,
2013-11-05 06:59:00,32.9,31.4,29.90,ESE,117,0.0,14.0,94,0.00,,,0.16,Wunderground v.1.13,2013-11-05 13:59:00,
2013-11-05 07:04:00,32.9,31.4,29.90,ESE,117,0.0,14.0,94,0.00,,,0.16,Wunderground v.1.13,2013-11-05 14:04:00,
2013-11-05 07:10:00,32.9,31.4,29.90,ESE,117,0.0,14.0,94,0.00,,,0.16,Wunderground v.1.13,2013-11-05 14:10:00,
2013-11-05 07:15:00,32.8,31.3,29.90,ESE,117,0.0,14.0,94,0.00,,,0.16,Wunderground v.1.13,2013-11-05 14:15:00,
2013-11-05 07:20:00,32.8,31.3,29.90,ESE,117,0.0,14.0,94,0.00,,,0.16,Wunderground v.1.13,2013-11-05 14:20:00,
2013-11-05 07:25:00,32.9,31.4,29.90,ESE,113,0.0,14.0,94,0.00,,,0.16,Wunderground v.1.13,2013-11-05 14:25:00,
2013-11-05 07:35:00,32.8,31.3,29.90,ESE,113,0.0,14.0,94,0.00,,,0.16,Wunderground v.1.13,2013-11-05 14:35:00,
2013-11-05 07:40:00,32.9,31.6,29.90,ESE,108,0.0,14.0,95,0.00,,,0.16,Wunderground v.1.13,2013-11-05 14:40:00,
2013-11-05 07:44:00,32.9,31.6,29.90,ESE,108,0.0,14.0,95,0.00,,,0.16,Wunderground v.1.13,2013-11-05 14:44:00,
2013-11-05 07:49:00,32.9,31.6,29.90,ESE,108,0.0,14.0,95,0.00,,,0.16,Wunderground v.1.13,2013-11-05 14:49:00,
2013-11-05 07:54:00,32.9,31.6,29.90,ESE,108,0.0,14.0,95,0.00,,,0.16,Wunderground v.1.13,2013-11-05 14:54:00,
2013-11-05 07:59:00,32.9,31.6,29.90,NE,44,0.0,14.0,95,0.00,,,0.16,Wunderground v.1.13,2013-11-05 14:59:00,
2013-11-05 08:09:00,33.1,31.8,29.93,NNW,340,0.0,14.0,95,0.00,,,0.16,Wunderground v.1.13,2013-11-05 15:09:00,
2013-11-05 08:15:00,33.1,31.8,29.93,NNW,340,0.0,14.0,95,0.00,,,0.16,Wunderground v.1.13,2013-11-05 15:15:00,
2013-11-05 08:19:00,33.1,31.8,29.94,NW,309,0.0,14.0,95,0.00,,,0.17,Wunderground v.1.13,2013-11-05 15:19:00,
2013-11-05 08:24:00,32.9,31.6,29.94,NW,304,0.0,14.0,95,0.00,,,0.17,Wunderground v.1.13,2013-11-05 15:24:00,
2013-11-05 08:29:00,32.9,31.6,29.94,NW,323,0.0,14.0,95,0.00,,,0.17,Wunderground v.1.13,2013-11-05 15:29:00,
2013-11-05 08:34:00,33.1,31.8,29.95,NW,323,0.0,14.0,95,0.00,,,0.17,Wunderground v.1.13,2013-11-05 15:34:00,
2013-11-05 08:39:00,33.1,31.8,29.95,NW,321,0.0,14.0,95,0.00,,,0.17,Wunderground v.1.13,2013-11-05 15:39:00,
2013-11-05 08:44:00,33.2,31.9,29.95,NNW,329,0.0,14.0,95,0.00,,,0.17,Wunderground v.1.13,2013-11-05 15:44:00,
2013-11-05 08:49:00,33.2,31.9,29.94,NNW,339,0.0,14.0,95,0.00,,,0.17,Wunderground v.1.13,2013-11-05 15:49:00,
2013-11-05 08:54:00,33.2,31.9,29.94,NW,323,0.0,14.0,95,0.00,,,0.17,Wunderground v.1.13,2013-11-05 15:54:00,
2013-11-05 08:59:00,33.2,31.9,29.94,NNW,331,0.0,14.0,95,0.00,,,0.17,Wunderground v.1.13,2013-11-05 15:59:00,
2013-11-05 09:04:00,33.2,31.9,29.94,NW,321,0.0,14.0,95,0.00,,,0.17,Wunderground v.1.13,2013-11-05 16:04:00,
2013-11-05 09:09:00,33.2,32.2,29.94,NNW,331,0.0,14.0,96,0.00,,,0.17,Wunderground v.1.13,2013-11-05 16:09:00,
2013-11-05 09:14:00,33.2,32.2,29.94,North,5,2.0,2.0,96,0.00,,,0.17,Wunderground v.1.13,2013-11-05 16:14:00,
2013-11-05 09:19:00,33.2,32.2,29.95,North,11,2.0,2.0,96,0.00,,,0.18,Wunderground v.1.13,2013-11-05 16:19:00,
2013-11-05 09:24:00,33.4,32.4,29.95,NNE,28,0.0,14.0,96,0.00,,,0.18,Wunderground v.1.13,2013-11-05 16:24:00,
2013-11-05 09:29:00,33.4,32.4,29.95,NNE,22,0.0,14.0,96,0.00,,,0.18,Wunderground v.1.13,2013-11-05 16:29:00,
2013-11-05 09:34:00,33.4,32.4,29.95,North,351,0.0,14.0,96,0.05,,,0.19,Wunderground v.1.13,2013-11-05 16:34:00,
2013-11-05 09:39:00,33.4,32.4,29.95,North,349,0.0,14.0,96,0.05,,,0.19,Wunderground v.1.13,2013-11-05 16:39:00,
2013-11-05 09:45:00,33.4,32.4,29.95,North,351,0.0,14.0,96,0.05,,,0.20,Wunderground v.1.13,2013-11-05 16:45:00,
2013-11-05 09:50:00,33.4,32.4,29.95,North,351,0.0,14.0,96,0.05,,,0.20,Wunderground v.1.13,2013-11-05 16:50:00,
2013-11-05 09:55:00,33.4,32.4,29.95,North,360,0.0,14.0,96,0.06,,,0.21,Wunderground v.1.13,2013-11-05 16:55:00,
2013-11-05 10:00:00,33.2,32.2,29.95,North,9,0.0,14.0,96,0.06,,,0.21,Wunderground v.1.13,2013-11-05 17:00:00,
2013-11-05 10:05:00,33.2,32.2,29.95,North,350,0.0,14.0,96,0.05,,,0.21,Wunderground v.1.13,2013-11-05 17:05:00,
2013-11-05 10:15:00,33.4,32.4,29.95,NNE,19,0.0,14.0,96,0.06,,,0.22,Wunderground v.1.13,2013-11-05 17:15:00,
2013-11-05 10:20:00,33.4,32.4,29.96,North,10,0.0,14.0,96,0.06,,,0.23,Wunderground v.1.13,2013-11-05 17:20:00,
2013-11-05 10:25:00,33.4,32.4,29.96,North,360,0.0,14.0,96,0.06,,,0.23,Wunderground v.1.13,2013-11-05 17:25:00,
2013-11-05 10:30:00,33.4,32.4,29.96,North,351,0.0,14.0,96,0.06,,,0.24,Wunderground v.1.13,2013-11-05 17:30:00,
2013-11-05 10:35:00,33.4,32.4,29.96,North,351,0.0,14.0,96,0.06,,,0.24,Wunderground v.1.13,2013-11-05 17:35:00,
2013-11-05 10:40:00,33.4,32.4,29.96,North,351,0.0,14.0,96,0.06,,,0.25,Wunderground v.1.13,2013-11-05 17:40:00,
2013-11-05 10:45:00,33.5,32.5,29.96,North,351,0.0,14.0,96,0.06,,,0.25,Wunderground v.1.13,2013-11-05 17:45:00,
2013-11-05 10:50:00,33.5,32.5,29.96,North,360,0.0,14.0,96,0.06,,,0.26,Wunderground v.1.13,2013-11-05 17:50:00,
2013-11-05 10:59:00,33.5,32.5,29.96,NNE,19,1.0,1.0,96,0.08,,,0.27,Wunderground v.1.13,2013-11-05 17:59:00,
2013-11-05 11:04:00,33.5,32.5,29.96,NNE,24,1.0,1.0,96,0.07,,,0.28,Wunderground v.1.13,2013-11-05 18:04:00,
2013-11-05 11:09:00,33.7,32.7,29.96,NNE,27,1.0,1.0,96,0.08,,,0.29,Wunderground v.1.13,2013-11-05 18:09:00,
2013-11-05 11:14:00,33.8,32.8,29.96,NNE,12,2.0,14.0,96,0.08,,,0.29,Wunderground v.1.13,2013-11-05 18:14:00,
2013-11-05 11:19:00,33.8,32.8,29.94,North,9,2.0,14.0,96,0.07,,,0.30,Wunderground v.1.13,2013-11-05 18:19:00,
2013-11-05 11:29:00,33.8,32.8,29.94,North,360,5.0,5.0,96,0.08,,,0.31,Wunderground v.1.13,2013-11-05 18:29:00,
2013-11-05 11:34:00,33.8,32.8,29.94,NNE,13,5.0,14.0,96,0.06,,,0.32,Wunderground v.1.13,2013-11-05 18:34:00,
2013-11-05 11:39:00,33.8,32.8,29.94,North,360,5.0,14.0,96,0.06,,,0.32,Wunderground v.1.13,2013-11-05 18:39:00,
2013-11-05 11:45:00,33.7,32.7,29.94,NNE,12,5.0,14.0,96,0.06,,,0.33,Wunderground v.1.13,2013-11-05 18:45:00,
2013-11-05 11:49:00,33.7,32.7,29.94,NNE,22,3.0,3.0,96,0.06,,,0.33,Wunderground v.1.13,2013-11-05 18:49:00,
2013-11-05 11:55:00,33.7,32.7,29.94,NNE,14,1.0,1.0,96,0.06,,,0.33,Wunderground v.1.13,2013-11-05 18:55:00,
2013-11-05 12:00:00,33.7,32.7,29.94,North,5,1.0,1.0,96,0.05,,,0.34,Wunderground v.1.13,2013-11-05 19:00:00,
2013-11-05 12:05:00,33.5,32.5,29.93,NNE,15,1.0,1.0,96,0.05,,,0.34,Wunderground v.1.13,2013-11-05 19:05:00,
2013-11-05 12:10:00,33.5,32.5,29.93,North,9,1.0,1.0,96,0.05,,,0.35,Wunderground v.1.13,2013-11-05 19:10:00,
2013-11-05 12:15:00,33.7,32.7,29.93,NNE,22,0.0,14.0,96,0.05,,,0.35,Wunderground v.1.13,2013-11-05 19:15:00,
2013-11-05 12:20:00,33.7,32.7,29.93,NNE,16,0.0,14.0,96,0.05,,,0.35,Wunderground v.1.13,2013-11-05 19:20:00,
2013-11-05 12:25:00,33.7,32.7,29.93,NNE,12,0.0,14.0,96,0.04,,,0.36,Wunderground v.1.13,2013-11-05 19:25:00,
2013-11-05 12:34:00,33.7,32.7,29.93,NNE,26,0.0,14.0,96,0.06,,,0.37,Wunderground v.1.13,2013-11-05 19:34:00,
2013-11-05 12:39:00,33.7,32.7,29.93,NNE,15,0.0,14.0,96,0.06,,,0.37,Wunderground v.1.13,2013-11-05 19:39:00,
2013-11-05 12:44:00,33.8,32.8,29.93,NNE,23,0.0,14.0,96,0.05,,,0.38,Wunderground v.1.13,2013-11-05 19:44:00,
2013-11-05 12:49:00,34.0,33.0,29.93,North,360,0.0,14.0,96,0.05,,,0.38,Wunderground v.1.13,2013-11-05 19:49:00,
2013-11-05 12:54:00,34.0,33.0,29.93,North,360,0.0,14.0,96,0.06,,,0.39,Wunderground v.1.13,2013-11-05 19:54:00,
2013-11-05 12:59:00,34.0,33.0,29.93,North,9,0.0,14.0,96,0.06,,,0.39,Wunderground v.1.13,2013-11-05 19:59:00,
2013-11-05 13:04:00,34.0,33.0,29.94,North,360,0.0,14.0,96,0.06,,,0.39,Wunderground v.1.13,2013-11-05 20:04:00,
2013-11-05 13:10:00,34.0,33.0,29.94,North,360,0.0,14.0,96,0.04,,,0.40,Wunderground v.1.13,2013-11-05 20:10:00,
2013-11-05 13:15:00,34.0,32.7,29.94,NNW,336,0.0,14.0,95,0.04,,,0.40,Wunderground v.1.13,2013-11-05 20:15:00,
2013-11-05 13:20:00,33.8,32.5,29.95,NW,317,0.0,14.0,95,0.04,,,0.40,Wunderground v.1.13,2013-11-05 20:20:00,
2013-11-05 13:25:00,33.8,32.5,29.95,NNW,348,0.0,14.0,95,0.04,,,0.41,Wunderground v.1.13,2013-11-05 20:25:00,
2013-11-05 13:30:00,33.8,32.8,29.95,North,351,0.0,14.0,96,0.04,,,0.41,Wunderground v.1.13,2013-11-05 20:30:00,
2013-11-05 13:34:00,34.0,33.0,29.95,North,351,0.0,14.0,96,0.04,,,0.41,Wunderground v.1.13,2013-11-05 20:34:00,
2013-11-05 13:40:00,34.1,32.8,29.95,North,351,0.0,14.0,95,0.04,,,0.42,Wunderground v.1.13,2013-11-05 20:40:00,
2013-11-05 13:45:00,34.1,32.8,29.95,NNE,31,0.0,14.0,95,0.04,,,0.42,Wunderground v.1.13,2013-11-05 20:45:00,
2013-11-05 13:50:00,34.1,32.8,29.96,NNE,30,0.0,14.0,95,0.04,,,0.42,Wunderground v.1.13,2013-11-05 20:50:00,
2013-11-05 13:55:00,34.1,32.8,29.96,NNE,30,0.0,14.0,95,0.04,,,0.43,Wunderground v.1.13,2013-11-05 20:55:00,
2013-11-05 14:00:00,34.3,33.0,29.96,NNE,22,0.0,14.0,95,0.04,,,0.43,Wunderground v.1.13,2013-11-05 21:00:00,
2013-11-05 14:05:00,34.3,33.0,29.96,NNE,21,0.0,14.0,95,0.04,,,0.43,Wunderground v.1.13,2013-11-05 21:05:00,
2013-11-05 14:10:00,34.3,33.0,29.96,NNE,14,0.0,14.0,95,0.04,,,0.44,Wunderground v.1.13,2013-11-05 21:10:00,
2013-11-05 14:15:00,34.3,33.0,29.96,NNE,14,0.0,14.0,95,0.04,,,0.44,Wunderground v.1.13,2013-11-05 21:15:00,
2013-11-05 14:20:00,34.3,33.0,29.97,NNE,14,0.0,14.0,95,0.04,,,0.44,Wunderground v.1.13,2013-11-05 21:20:00,
2013-11-05 14:25:00,34.3,33.0,29.97,NNE,14,0.0,14.0,95,0.00,,,0.45,Wunderground v.1.13,2013-11-05 21:25:00,
2013-11-05 14:29:00,34.3,33.0,29.97,NNE,14,0.0,14.0,95,0.00,,,0.45,Wunderground v.1.13,2013-11-05 21:29:00,
2013-11-05 14:34:00,34.3,33.0,29.97,NNE,14,0.0,14.0,95,0.00,,,0.45,Wunderground v.1.13,2013-11-05 21:34:00,
2013-11-05 14:39:00,34.3,33.0,29.97,NNE,14,0.0,14.0,95,0.00,,,0.45,Wunderground v.1.13,2013-11-05 21:39:00,
2013-11-05 14:44:00,34.1,32.8,29.97,NNE,14,0.0,14.0,95,0.00,,,0.45,Wunderground v.1.13,2013-11-05 21:44:00,
2013-11-05 14:49:00,34.1,32.8,29.99,NNE,14,0.0,14.0,95,0.00,,,0.45,Wunderground v.1.13,2013-11-05 21:49:00,
2013-11-05 14:55:00,34.3,33.0,29.99,NNE,14,0.0,14.0,95,0.00,,,0.45,Wunderground v.1.13,2013-11-05 21:55:00,
2013-11-05 14:59:00,34.3,33.0,29.99,NNE,14,0.0,14.0,95,0.00,,,0.46,Wunderground v.1.13,2013-11-05 21:59:00,
2013-11-05 15:04:00,34.3,33.0,30.01,NNE,14,0.0,14.0,95,0.00,,,0.46,Wunderground v.1.13,2013-11-05 22:04:00,
2013-11-05 15:09:00,34.3,33.0,30.01,NNE,14,0.0,14.0,95,0.00,,,0.46,Wunderground v.1.13,2013-11-05 22:09:00,
2013-11-05 15:14:00,34.1,32.8,30.01,NNE,14,0.0,14.0,95,0.00,,,0.46,Wunderground v.1.13,2013-11-05 22:14:00,
2013-11-05 15:19:00,34.1,32.8,30.01,NNE,14,0.0,14.0,95,0.00,,,0.46,Wunderground v.1.13,2013-11-05 22:19:00,
2013-11-05 15:25:00,34.1,32.8,30.01,NNE,14,0.0,14.0,95,0.00,,,0.47,Wunderground v.1.13,2013-11-05 22:25:00,
2013-11-05 15:30:00,34.0,32.7,30.01,North,360,0.0,14.0,95,0.00,,,0.47,Wunderground v.1.13,2013-11-05 22:30:00,
2013-11-05 15:35:00,33.7,32.2,30.02,NW,306,1.0,1.0,94,0.00,,,0.47,Wunderground v.1.13,2013-11-05 22:35:00,
2013-11-05 15:40:00,33.4,32.1,30.02,NW,319,2.0,14.0,95,0.00,,,0.47,Wunderground v.1.13,2013-11-05 22:40:00,
2013-11-05 15:45:00,33.1,31.8,30.02,NNW,327,3.0,14.0,95,0.00,,,0.47,Wunderground v.1.13,2013-11-05 22:45:00,
2013-11-05 15:50:00,32.9,31.6,30.02,WNW,296,4.0,4.0,95,0.00,,,0.47,Wunderground v.1.13,2013-11-05 22:50:00,
2013-11-05 15:55:00,32.9,31.6,30.02,NW,325,5.0,14.0,95,0.00,,,0.47,Wunderground v.1.13,2013-11-05 22:55:00,
2013-11-05 16:00:00,32.8,31.5,30.02,NNW,341,6.0,16.0,95,0.00,,,0.47,Wunderground v.1.13,2013-11-05 23:00:00,
2013-11-05 16:05:00,32.7,31.4,30.03,NNW,331,8.0,14.0,95,0.00,,,0.47,Wunderground v.1.13,2013-11-05 23:05:00,
2013-11-05 16:10:00,32.7,31.2,30.03,NNW,327,10.0,17.0,94,0.00,,,0.47,Wunderground v.1.13,2013-11-05 23:10:00,
2013-11-05 16:15:00,32.7,30.9,30.03,NNW,336,9.0,9.0,93,0.00,,,0.47,Wunderground v.1.13,2013-11-05 23:15:00,
2013-11-05 16:20:00,32.8,31.0,30.03,NW,309,9.0,9.0,93,0.00,,,0.47,Wunderground v.1.13,2013-11-05 23:20:00,
2013-11-05 16:25:00,32.8,30.7,30.03,North,351,7.0,7.0,92,0.00,,,0.47,Wunderground v.1.13,2013-11-05 23:25:00,
2013-11-05 16:30:00,32.9,30.0,30.03,NW,323,6.0,6.0,89,0.00,,,0.47,Wunderground v.1.13,2013-11-05 23:30:00,
2013-11-05 16:34:00,32.9,30.3,30.04,NW,310,8.0,8.0,90,0.00,,,0.47,Wunderground v.1.13,2013-11-05 23:34:00,
2013-11-05 16:39:00,33.1,30.2,30.04,NW,326,8.0,8.0,89,0.00,,,0.47,Wunderground v.1.13,2013-11-05 23:39:00,
2013-11-05 16:45:00,33.1,29.9,30.04,NW,317,7.0,7.0,88,0.00,,,0.47,Wunderground v.1.13,2013-11-05 23:45:00,
2013-11-05 16:49:00,33.2,30.0,30.05,NNW,345,5.0,5.0,88,0.00,,,0.47,Wunderground v.1.13,2013-11-05 23:49:00,
2013-11-05 16:54:00,33.2,29.8,30.05,NW,318,5.0,5.0,87,0.00,,,0.47,Wunderground v.1.13,2013-11-05 23:54:00,
2013-11-05 17:00:00,33.2,29.8,30.05,NNW,345,5.0,5.0,87,0.00,,,0.47,Wunderground v.1.13,2013-11-06 00:00:00,
2013-11-05 17:05:00,33.2,29.8,30.06,North,351,3.0,14.0,87,0.00,,,0.47,Wunderground v.1.13,2013-11-06 00:05:00,
2013-11-05 17:15:00,33.2,29.5,30.06,NNW,338,5.0,5.0,86,0.00,,,0.47,Wunderground v.1.13,2013-11-06 00:15:00,
2013-11-05 17:20:00,33.2,29.2,30.07,NNW,327,3.0,3.0,85,0.00,,,0.47,Wunderground v.1.13,2013-11-06 00:20:00,
2013-11-05 17:25:00,33.2,29.2,30.07,NNW,346,2.0,14.0,85,0.00,,,0.47,Wunderground v.1.13,2013-11-06 00:25:00,
2013-11-05 17:30:00,33.2,28.9,30.07,NNW,327,2.0,2.0,84,0.00,,,0.47,Wunderground v.1.13,2013-11-06 00:30:00,
2013-11-05 17:35:00,33.2,28.9,30.07,North,351,2.0,2.0,84,0.00,,,0.47,Wunderground v.1.13,2013-11-06 00:35:00,
2013-11-05 17:45:00,33.1,28.5,30.07,North,351,2.0,2.0,83,0.00,,,0.47,Wunderground v.1.13,2013-11-06 00:45:00,
2013-11-05 17:50:00,33.1,28.5,30.07,NNW,345,2.0,2.0,83,0.00,,,0.47,Wunderground v.1.13,2013-11-06 00:50:00,
2013-11-05 17:55:00,33.2,28.6,30.07,NNW,345,1.0,1.0,83,0.00,,,0.47,Wunderground v.1.13,2013-11-06 00:55:00,
2013-11-05 18:00:00,33.2,28.6,30.07,NW,319,0.0,14.0,83,0.00,,,0.47,Wunderground v.1.13,2013-11-06 01:00:00,
2013-11-05 18:05:00,33.2,28.6,30.08,NNW,332,1.0,14.0,83,0.00,,,0.47,Wunderground v.1.13,2013-11-06 01:05:00,
2013-11-05 18:10:00,33.2,28.0,30.08,NNW,335,3.0,3.0,81,0.00,,,0.47,Wunderground v.1.13,2013-11-06 01:10:00,
2013-11-05 18:15:00,33.2,27.7,30.08,NNW,335,4.0,4.0,80,0.00,,,0.47,Wunderground v.1.13,2013-11-06 01:15:00,
2013-11-05 18:20:00,33.2,27.7,30.09,NNW,336,3.0,3.0,80,0.00,,,0.47,Wunderground v.1.13,2013-11-06 01:20:00,
2013-11-05 18:30:00,33.1,27.6,30.09,NNW,336,2.0,2.0,80,0.00,,,0.47,Wunderground v.1.13,2013-11-06 01:30:00,
2013-11-05 18:35:00,32.9,27.1,30.09,NNW,336,3.0,14.0,79,0.00,,,0.47,Wunderground v.1.13,2013-11-06 01:35:00,
2013-11-05 18:39:00,32.9,27.1,30.09,NNW,336,3.0,3.0,79,0.00,,,0.47,Wunderground v.1.13,2013-11-06 01:39:00,
2013-11-05 18:44:00,32.8,27.3,30.09,NNW,336,3.0,3.0,80,0.00,,,0.47,Wunderground v.1.13,2013-11-06 01:44:00,
2013-11-05 18:49:00,32.7,27.2,30.09,NNW,336,3.0,3.0,80,0.00,,,0.47,Wunderground v.1.13,2013-11-06 01:49:00,
2013-11-05 18:59:00,32.2,26.7,30.09,NNW,336,1.0,1.0,80,0.00,,,0.47,Wunderground v.1.13,2013-11-06 01:59:00,
2013-11-05 19:04:00,31.9,26.4,30.09,NNW,336,0.0,14.0,80,0.00,,,0.47,Wunderground v.1.13,2013-11-06 02:04:00,
2013-11-05 19:09:00,31.8,26.3,30.09,NNW,336,0.0,14.0,80,0.00,,,0.47,Wunderground v.1.13,2013-11-06 02:09:00,
2013-11-05 19:14:00,31.6,26.1,30.09,NNW,336,0.0,14.0,80,0.00,,,0.47,Wunderground v.1.13,2013-11-06 02:14:00,
2013-11-05 19:19:00,31.6,26.1,30.10,NNW,336,0.0,14.0,80,0.00,,,0.47,Wunderground v.1.13,2013-11-06 02:19:00,
2013-11-05 19:24:00,31.6,26.1,30.10,NNW,336,0.0,14.0,80,0.00,,,0.47,Wunderground v.1.13,2013-11-06 02:24:00,
2013-11-05 19:29:00,31.6,26.1,30.10,NNW,336,0.0,14.0,80,0.00,,,0.47,Wunderground v.1.13,2013-11-06 02:29:00,
2013-11-05 19:35:00,31.3,26.1,30.10,NNW,336,0.0,14.0,81,0.00,,,0.47,Wunderground v.1.13,2013-11-06 02:35:00,
2013-11-05 19:40:00,31.3,26.1,30.10,NNW,336,0.0,14.0,81,0.00,,,0.47,Wunderground v.1.13,2013-11-06 02:40:00,
2013-11-05 19:45:00,31.2,26.0,30.10,NNW,336,1.0,1.0,81,0.00,,,0.47,Wunderground v.1.13,2013-11-06 02:45:00,
2013-11-05 19:50:00,31.0,25.9,30.11,NNW,336,1.0,1.0,81,0.00,,,0.47,Wunderground v.1.13,2013-11-06 02:50:00,
2013-11-05 19:55:00,30.6,25.8,30.11,NNW,336,0.0,14.0,82,0.00,,,0.47,Wunderground v.1.13,2013-11-06 02:55:00,
2013-11-05 20:00:00,30.0,25.5,30.11,NNW,336,1.0,1.0,83,0.00,,,0.47,Wunderground v.1.13,2013-11-06 03:00:00,
2013-11-05 20:04:00,29.5,25.0,30.11,NNW,336,1.0,1.0,83,0.00,,,0.47,Wunderground v.1.13,2013-11-06 03:04:00,
2013-11-05 20:09:00,29.3,25.1,30.11,NNW,336,2.0,14.0,84,0.00,,,0.47,Wunderground v.1.13,2013-11-06 03:09:00,
2013-11-05 20:14:00,29.1,24.9,30.11,NNW,336,1.0,14.0,84,0.00,,,0.47,Wunderground v.1.13,2013-11-06 03:14:00,
2013-11-05 20:19:00,29.0,24.8,30.11,NNW,336,1.0,1.0,84,0.00,,,0.47,Wunderground v.1.13,2013-11-06 03:19:00,
2013-11-05 20:24:00,28.8,24.6,30.11,NNW,336,0.0,14.0,84,0.00,,,0.47,Wunderground v.1.13,2013-11-06 03:24:00,
2013-11-05 20:29:00,28.7,24.5,30.11,NNW,336,0.0,14.0,84,0.00,,,0.47,Wunderground v.1.13,2013-11-06 03:29:00,
2013-11-05 20:34:00,28.5,24.6,30.11,NNW,336,0.0,14.0,85,0.00,,,0.47,Wunderground v.1.13,2013-11-06 03:34:00,
2013-11-05 20:39:00,28.5,24.6,30.11,NNW,336,0.0,14.0,85,0.00,,,0.47,Wunderground v.1.13,2013-11-06 03:39:00,
2013-11-05 20:44:00,28.7,24.8,30.11,NNW,336,0.0,14.0,85,0.00,,,0.47,Wunderground v.1.13,2013-11-06 03:44:00,
2013-11-05 20:49:00,29.0,25.1,30.11,NNW,336,1.0,1.0,85,0.00,,,0.47,Wunderground v.1.13,2013-11-06 03:49:00,
2013-11-05 20:55:00,29.1,24.9,30.11,NNW,336,1.0,1.0,84,0.00,,,0.47,Wunderground v.1.13,2013-11-06 03:55:00,
2013-11-05 20:59:00,29.0,24.8,30.11,NNW,336,2.0,2.0,84,0.00,,,0.47,Wunderground v.1.13,2013-11-06 03:59:00,
2013-11-05 21:04:00,28.7,24.5,30.11,NNW,336,1.0,1.0,84,0.00,,,0.47,Wunderground v.1.13,2013-11-06 04:04:00,
2013-11-05 21:10:00,28.5,24.3,30.11,NNW,336,0.0,14.0,84,0.00,,,0.47,Wunderground v.1.13,2013-11-06 04:10:00,
2013-11-05 21:15:00,28.4,24.2,30.11,NNW,336,0.0,14.0,84,0.00,,,0.47,Wunderground v.1.13,2013-11-06 04:15:00,
2013-11-05 21:20:00,28.1,24.2,30.12,NNW,336,0.0,14.0,85,0.00,,,0.47,Wunderground v.1.13,2013-11-06 04:20:00,
2013-11-05 21:25:00,27.9,24.0,30.12,NNW,336,0.0,14.0,85,0.00,,,0.47,Wunderground v.1.13,2013-11-06 04:25:00,
2013-11-05 21:30:00,27.8,23.9,30.12,NNW,336,0.0,14.0,85,0.00,,,0.47,Wunderground v.1.13,2013-11-06 04:30:00,
2013-11-05 21:35:00,27.6,23.7,30.12,NNW,336,0.0,14.0,85,0.00,,,0.47,Wunderground v.1.13,2013-11-06 04:35:00,
2013-11-05 21:40:00,27.5,23.6,30.12,NNW,336,0.0,14.0,85,0.00,,,0.47,Wunderground v.1.13,2013-11-06 04:40:00,
2013-11-05 21:45:00,27.3,23.4,30.12,NNW,336,0.0,14.0,85,0.00,,,0.47,Wunderground v.1.13,2013-11-06 04:45:00,
2013-11-05 21:50:00,27.2,23.3,30.12,NNW,336,0.0,14.0,85,0.00,,,0.47,Wunderground v.1.13,2013-11-06 04:50:00,
2013-11-05 22:00:00,26.9,23.0,30.12,NNW,336,0.0,14.0,85,0.00,,,0.47,Wunderground v.1.13,2013-11-06 05:00:00,
2013-11-05 22:05:00,26.9,23.3,30.12,NNW,336,0.0,14.0,86,0.00,,,0.47,Wunderground v.1.13,2013-11-06 05:05:00,
2013-11-05 22:10:00,26.7,22.8,30.12,NNW,336,0.0,14.0,85,0.00,,,0.47,Wunderground v.1.13,2013-11-06 05:10:00,
2013-11-05 22:20:00,26.6,23.0,30.11,NNW,336,0.0,14.0,86,0.00,,,0.47,Wunderground v.1.13,2013-11-06 05:20:00,
2013-11-05 22:24:00,26.4,22.8,30.11,NNW,336,0.0,14.0,86,0.00,,,0.47,Wunderground v.1.13,2013-11-06 05:24:00,
2013-11-05 22:29:00,26.3,22.7,30.11,NNW,336,0.0,14.0,86,0.00,,,0.47,Wunderground v.1.13,2013-11-06 05:29:00,
2013-11-05 22:35:00,26.4,23.1,30.11,NNW,336,0.0,14.0,87,0.00,,,0.47,Wunderground v.1.13,2013-11-06 05:35:00,
2013-11-05 22:40:00,26.7,23.4,30.11,NNW,336,0.0,14.0,87,0.00,,,0.47,Wunderground v.1.13,2013-11-06 05:40:00,
2013-11-05 22:44:00,26.7,23.4,30.11,NNW,336,0.0,14.0,87,0.00,,,0.47,Wunderground v.1.13,2013-11-06 05:44:00,
2013-11-05 22:49:00,26.7,23.1,30.11,NNW,336,0.0,14.0,86,0.00,,,0.47,Wunderground v.1.13,2013-11-06 05:49:00,
2013-11-05 22:54:00,26.7,23.4,30.11,NNW,336,0.0,14.0,87,0.00,,,0.47,Wunderground v.1.13,2013-11-06 05:54:00,
2013-11-05 22:59:00,26.9,23.3,30.11,NNW,336,0.0,14.0,86,0.00,,,0.47,Wunderground v.1.13,2013-11-06 05:59:00,
2013-11-05 23:04:00,26.9,23.5,30.11,NNW,336,0.0,14.0,87,0.00,,,0.47,Wunderground v.1.13,2013-11-06 06:04:00,
2013-11-05 23:09:00,26.9,23.3,30.11,NNW,336,0.0,14.0,86,0.00,,,0.47,Wunderground v.1.13,2013-11-06 06:09:00,
2013-11-05 23:14:00,26.7,23.1,30.11,NNW,336,0.0,14.0,86,0.00,,,0.47,Wunderground v.1.13,2013-11-06 06:14:00,
2013-11-05 23:19:00,26.6,23.0,30.12,NNW,336,0.0,14.0,86,0.00,,,0.47,Wunderground v.1.13,2013-11-06 06:19:00,
2013-11-05 23:24:00,26.3,22.7,30.12,NNW,336,0.0,14.0,86,0.00,,,0.47,Wunderground v.1.13,2013-11-06 06:24:00,
2013-11-05 23:29:00,26.0,22.4,30.12,NNW,336,0.0,14.0,86,0.00,,,0.47,Wunderground v.1.13,2013-11-06 06:29:00,
2013-11-05 23:34:00,25.7,22.1,30.12,NNW,336,0.0,14.0,86,0.00,,,0.47,Wunderground v.1.13,2013-11-06 06:34:00,
2013-11-05 23:39:00,25.4,22.1,30.12,NNW,336,0.0,14.0,87,0.00,,,0.47,Wunderground v.1.13,2013-11-06 06:39:00,
2013-11-05 23:44:00,25.3,22.0,30.12,NNW,336,0.0,14.0,87,0.00,,,0.47,Wunderground v.1.13,2013-11-06 06:44:00,
2013-11-05 23:49:00,25.0,21.7,30.13,NNW,336,0.0,14.0,87,0.00,,,0.47,Wunderground v.1.13,2013-11-06 06:49:00,
2013-11-05 23:54:00,24.7,21.4,30.13,NNW,336,0.0,14.0,87,0.00,,,0.47,Wunderground v.1.13,2013-11-06 06:54:00,